Skip Page Navigation
NASA JPL Caltech
NASA Logo - Jet Propulsion Laboratory + View the NASA Portal
+ Near-Earth Object (NEO) Program
Search JPL
JPL Home Earth Solar System Stars & Galaxies Technology
JPL Solar System Dynamics
BODIES ORBITS EPHEMERIDES TOOLS PHYSICAL DATA DISCOVERY FAQ SITE MAP
JPL Small-Body Database Browser
Search: [ help ]  
214869 (2007 PA8)
Classification: Apollo [NEO, PHA]          SPK-ID: 2214869
Ephemeris | Orbit Diagram | Orbital Elements | Physical Parameters | Discovery Circumstances | Close-Approach Data ]

[ hide orbit diagram ]
Orbit Diagram
Note: Make sure you have Java enabled on your browser to see the applet. This applet is provided as a 3D orbit visualization tool. The applet was implemented using 2-body methods, and hence should not be used for determining accurate long-term trajectories (over several years or decades) or planetary encounter circumstances. For accurate long-term ephemerides, please instead use our Horizons system.
Orbit Viewer

Additional Notes: the orbits shown in the applet are color coded. The planets are white lines, and the asteroid/comet is a blue line. The bright white line indicates the portion of the orbit that is above the ecliptic plane, and the darker portion is below the ecliptic plane. Likewise for the asteroid/comet orbit, the light blue indicates the portion above the ecliptic plane, and the dark blue the portion below the ecliptic plane.

Orbit Viewer applet originally written and kindly provided by Osamu Ajiki (AstroArts), and further modified by Ron Baalke (JPL).


Orbital Elements at Epoch 2456400.5 (2013-Apr-18.0) TDB
Reference: JPL 149 (heliocentric ecliptic J2000)
 Element Value Uncertainty (1-sigma)   Units 
e .6620338134061433 8.1235e-09  
a 2.8224061614201 4.6649e-08 AU
q .9538778473941564 1.7185e-08 AU
i 1.983944971212134 1.1088e-06 deg
node 142.6635945370555 8.5482e-05 deg
peri 292.2702717907519 8.4961e-05 deg
M 29.151562735642 6.9936e-07 deg
tp 2456260.255113773029
(2012-Nov-28.75511377)
1.1724e-06 JED
period 1731.919468590971
4.74
4.2938e-05
1.176e-07
d
yr
n .2078618587808147 5.1534e-09 deg/d
Q 4.690934475446045 7.7533e-08 AU
  Orbit Determination Parameters
   # obs. used (total)      658  
   # delay obs. used      14  
   # Doppler obs. used      3  
   data-arc span      3957 days (10.83 yr)  
   first obs. used      2002-07-13  
   last obs. used      2013-05-13  
   planetary ephem.      DE405  
   SB-pert. ephem.      SB405-CPV-2  
   condition code      0  
   fit RMS      .49318  
   data source      ORB  
   producer      Otto Matic  
   solution date      2013-May-22 01:47:57  

Additional Information
 Earth MOID = .0238928 AU 
 T_jup = 2.947 
[ show covariance matrix ]

Ephemeris | Orbit Diagram | Orbital Elements | Physical Parameters | Discovery Circumstances | Close-Approach Data ]

Physical Parameter Table
Parameter Symbol Value Units Sigma Reference Notes
absolute magnitude H 16.269 mag .48239 67 autocmod 2.5b
rotation period rot_per 85. h n/a Asteroid Lightcurve DataBase (Rev. 2013-May-01) Result based on fragmentary lightcurve(s), may be completely wrong.
Published Reference List:
[Observers at Arecibo and Goldstone. Lead researcher not given or known. http://www.naic.edu/~pradar/ http://www.jpl.nasa.gov/asteroidwatch]

214869 (2007 PA8)          Discovered 2007-Aug-09 by LINEAR at Socorro (704)
Reference: 20090509/Numbers.arcLast Updated: 2009-05-11

[ show close-approach data ]
Ephemeris | Orbit Diagram | Orbital Elements | Physical Parameters | Discovery Circumstances | Close-Approach Data ]
ABOUT SSD CREDITS/AWARDS PRIVACY/COPYRIGHT GLOSSARY LINKS
FirstGov 2013-May-25 14:39 UT
(server date/time)  
NASA Home Page
Site Manager:   Donald K. Yeomans
Webmaster  Alan B. Chamberlin